[[{"header":{"parameterUnit":"m.s-1","parameterCategory":2,"la1":30.2991,"la2":30.254,"lo1":-89.0895,"lo2":-89.0444,"dy":0.0017,"dx":0.0017,"nx":28,"ny":28,"refTime":"2023-09-06T21:00:00:Z","depth":"0","parameterNumber":2,"parameterNumberName":"U-component_of_CURRENTS"},"data":[0,0,0,0,0,0,0,0,0,0,0,0,0,0,0,0,0,0,0,0,0,0,0,0,0,0,0,0,0,0,0,0,0,0,0,0,0,0,0,0,0,0,0,0,0,0,0,0,0,0,0,0,0,0,0,0,0,0,0.2476,0.2477,0,0.2503,0.2503,0.2503,0.2492,0.2492,0.2492,0.2491,0.246,0.246,0.2459,0,0,0,0,0,0,0,0,0,0,0,0,0,0.2403,0.2404,0.2476,0.2477,0.2477,0.2503,0.2503,0.2503,0.2493,0.2492,0.2492,0.2491,0.246,0.246,0.2459,0,0,0,0,0,0,0,0,0,0,0,0,0,0.243,0.2405,0.2476,0.2477,0.2478,0.2503,0.2503,0.2503,0.2493,0.2492,0.2492,0.2491,0.2461,0.246,0.2459,0.2465,0,0,0.2457,0.2456,0,0,0,0,0,0,0,0,0.2429,0.2432,0.2477,0.2477,0.2478,0.2496,0.2466,0.2489,0.2493,0.2484,0.2491,0.2491,0.2469,0.2468,0.2471,0.2464,0.2462,0.2457,0.2456,0.2456,0.2456,0,0,0,0,0,0,0,0.2427,0.2431,0.2484,0.2477,0.2478,0.2473,0.2476,0.247,0.2476,0.2485,0.2485,0.2493,0.2469,0.2471,0.247,0.2462,0.2457,0.2456,0.2456,0.2455,0.2482,0.2483,0,0,0,0,0,0,0.2431,0.243,0.2483,0.2485,0.2455,0.2475,0.2478,0.2489,0.2477,0.2476,0.2493,0.2492,0.2473,0.2471,0.2468,0.2497,0.2456,0.2455,0.2455,0.2481,0.2482,0.2484,0,0,0,0,0,0,0.2429,0.2436,0.2482,0.246,0.2466,0.2477,0.2489,0.249,0.2497,0.2485,0.2482,0.2501,0.2472,0.247,0.2475,0.2495,0.2455,0.2454,0.248,0.2481,0.2483,0.254,0,0,0,0,0,0,0.2427,0.2435,0.2444,0.246,0.2467,0.2504,0.249,0.2491,0.2504,0.2503,0.249,0.2487,0.2472,0.2476,0.2474,0.2493,0.2454,0.2478,0.248,0.2483,0.2537,0.2544,0.255,0,0,0,0,0,0.2425,0.2437,0.2444,0.2451,0.2479,0.2505,0.2508,0.2512,0.2505,0.2515,0.2508,0.2487,0.2488,0.2477,0.2474,0.2493,0.2477,0.248,0.2482,0.2534,0.2542,0.2549,0,0,0,0,0,0,0.2409,0.2438,0.2446,0.2467,0.249,0.2505,0.2514,0.2518,0.2522,0.2518,0.25,0.2497,0.2512,0.2496,0.2483,0.2508,0.248,0.2482,0.2521,0.2528,0.2534,0.2541,0.2453,0,0,0,0,0,0.2412,0.2427,0.2458,0.2473,0.2488,0.2503,0.2514,0.252,0.2527,0.2528,0.252,0.2515,0.2521,0.2518,0.2517,0.2528,0.2539,0.254,0.2546,0.2552,0.2556,0.2594,0.2605,0.2492,0.2492,0.2492,0,0,0.2409,0.2428,0.2436,0.2471,0.2487,0.2511,0.2508,0.253,0.2546,0.2524,0.2536,0.2537,0.253,0.2546,0.2551,0.2534,0.2594,0.2555,0.256,0.2561,0.2598,0.2609,0.2619,0.2494,0.2494,0.2493,0,0,0.2411,0.2432,0.2447,0.2471,0.2504,0.2517,0.2527,0.2551,0.2559,0.2579,0.2571,0.2586,0.2584,0.259,0.2591,0.2632,0.263,0.2631,0.2664,0.2702,0.2711,0.272,0.2769,0.2782,0.263,0.2631,0.2631,0,0.2406,0.2434,0.2455,0.248,0.2501,0.2522,0.2547,0.2564,0.2583,0.2599,0.2588,0.2616,0.2607,0.264,0.2654,0.2647,0.2672,0.2635,0.2711,0.2719,0.2727,0.2775,0.2788,0.2634,0.2633,0.2633,0.2633,0,0.2424,0.2449,0.2462,0.2499,0.2523,0.2549,0.2582,0.2607,0.2619,0.2635,0.2673,0.2673,0.2692,0.2695,0.2685,0.2739,0.2742,0.2718,0.2692,0.2742,0.279,0.2802,0.2638,0.2637,0.2636,0.2635,0,0,0.24,0.2463,0.2464,0.2488,0.2538,0.2557,0.26,0.2645,0.2679,0.2697,0.2739,0.2756,0.2765,0.2768,0.2766,0.2794,0.2875,0.2782,0.2783,0.2833,0.2977,0.2985,0.2999,0.2867,0.2869,0.2871,0.2996,0,0.2407,0.245,0.2482,0.2521,0.2549,0.2593,0.2629,0.2672,0.271,0.2755,0.2776,0.2811,0.2791,0.2811,0.2838,0.2866,0.2907,0.2844,0.2919,0.2922,0.2923,0.3013,0.2936,0.3041,0.3008,0.301,0.3012,0,0.2407,0.244,0.248,0.2541,0.2558,0.2585,0.2658,0.2697,0.2772,0.2804,0.2852,0.2872,0.2928,0.2896,0.2982,0.2946,0.297,0.2986,0.2991,0.2984,0.2952,0.2982,0.3065,0.2995,0.3031,0.3029,0.3028,0,0.2368,0.2433,0.2462,0.2484,0.2558,0.2589,0.2632,0.2709,0.275,0.2844,0.2884,0.295,0.2992,0.3032,0.3078,0.3039,0.3174,0.3119,0.3153,0.3154,0.3096,0.3088,0.3118,0.3185,0.3184,0.3184,0.3184,0,0.2356,0.2378,0.2448,0.2464,0.2504,0.2569,0.2622,0.2685,0.2774,0.2828,0.2902,0.2969,0.3028,0.3107,0.3126,0.3203,0.3221,0.3189,0.3195,0.3116,0.3109,0.3048,0.3011,0.3189,0.3188,0.3187,0.3186,0,0.2302,0.235,0.2384,0.2461,0.2484,0.2511,0.2599,0.2645,0.2744,0.2824,0.2857,0.3001,0.3123,0.3188,0.3282,0.3274,0.3258,0.3351,0.3266,0.3261,0.3194,0.3163,0.308,0.2981,0.3404,0.3405,0.3406,0,0.2277,0.2292,0.2358,0.2375,0.2409,0.2462,0.25,0.2609,0.2661,0.2843,0.2876,0.3045,0.3149,0.3319,0.3366,0.3439,0.3311,0.339,0.3287,0.3212,0.3183,0.3022,0.2931,0.3243,0.3242,0.3242,0.3242,0,0.2228,0.225,0.2275,0.2313,0.2348,0.2388,0.2457,0.2487,0.2626,0.2716,0.2864,0.2979,0.319,0.3267,0.3393,0.3416,0.3239,0.3383,0.3321,0.3087,0.2898,0.2797,0.3149,0.3238,0.3238,0.3239,0.3239,0.3239,0.2178,0.2179,0.2213,0.2237,0.2271,0.2299,0.2303,0.2394,0.247,0.2584,0.2765,0.2909,0.3119,0.3301,0.3303,0.3296,0.3226,0.3209,0.3192,0.3046,0.2898,0.3257,0.3337,0.3338,0.3339,0.3339,0.334,0,0.2113,0.212,0.214,0.2155,0.2149,0.2208,0.2254,0.2251,0.23,0.2485,0.2603,0.2838,0.2971,0.3113,0.3235,0.3133,0.2935,0.3046,0.2795,0.2722,0.3078,0.3019,0.3013,0.3014,0.3014,0.3014,0.3014,0.3014,0.2078,0.2062,0.2069,0.2026,0.2033,0.2007,0.201,0.2036,0.2141,0.2282,0.2434,0.2588,0.2907,0.3116,0.3107,0.3025,0.275,0.2645,0.2589,0.2858,0.287,0.2881,0.2816,0.2768,0.2768,0.2108,0.2103,0.21]},{"header":{"parameterUnit":"m.s-1","parameterCategory":2,"la1":30.2991,"la2":30.254,"lo1":-89.0895,"lo2":-89.0444,"dy":0.0017,"dx":0.0017,"nx":28,"ny":28,"refTime":"2023-09-06T21:00:00:Z","depth":"0","parameterNumber":3,"parameterNumberName":"V-component_of_CURRENTS"},"data":[0,0,0,0,0,0,0,0,0,0,0,0,0,0,0,0,0,0,0,0,0,0,0,0,0,0,0,0,0,0,0,0,0,0,0,0,0,0,0,0,0,0,0,0,0,0,0,0,0,0,0,0,0,0,0,0,0,0,-0.0471,-0.0472,0,-0.0535,-0.0535,-0.0536,-0.0572,-0.0572,-0.0572,-0.0572,-0.0648,-0.065,-0.0652,0,0,0,0,0,0,0,0,0,0,0,0,0,-0.0421,-0.0421,-0.0471,-0.0472,-0.0473,-0.0535,-0.0536,-0.0536,-0.0571,-0.0572,-0.0572,-0.0572,-0.0647,-0.065,-0.0652,0,0,0,0,0,0,0,0,0,0,0,0,0,-0.046,-0.0421,-0.0471,-0.0498,-0.05,-0.0534,-0.0536,-0.0537,-0.0571,-0.0572,-0.0572,-0.0572,-0.0647,-0.0649,-0.0652,-0.0669,0,0,-0.0661,-0.0663,0,0,0,0,0,0,0,0,-0.0457,-0.0461,-0.0493,-0.0496,-0.0499,-0.0545,-0.0546,-0.0581,-0.0571,-0.0545,-0.0572,-0.0572,-0.0614,-0.062,-0.0632,-0.0672,-0.0675,-0.0662,-0.0663,-0.0665,-0.0666,0,0,0,0,0,0,0,-0.0454,-0.0459,-0.0497,-0.0494,-0.0497,-0.052,-0.0525,-0.0553,-0.0579,-0.0547,-0.055,-0.0556,-0.0616,-0.0629,-0.0634,-0.0677,-0.0662,-0.0664,-0.0666,-0.0667,-0.0734,-0.0734,0,0,0,0,0,0,-0.0444,-0.0456,-0.0495,-0.0499,-0.0478,-0.052,-0.0526,-0.053,-0.0578,-0.0586,-0.0556,-0.0558,-0.0624,-0.0631,-0.0637,-0.0653,-0.0665,-0.0667,-0.0669,-0.0734,-0.0734,-0.0734,0,0,0,0,0,0,-0.0442,-0.0446,-0.0492,-0.0479,-0.0486,-0.0521,-0.0525,-0.0532,-0.0545,-0.0585,-0.0592,-0.0563,-0.0624,-0.0633,-0.0662,-0.0656,-0.0669,-0.0671,-0.0734,-0.0734,-0.0734,-0.0688,0,0,0,0,0,0,-0.0441,-0.0445,-0.0444,-0.0478,-0.0487,-0.0506,-0.0525,-0.0533,-0.0549,-0.0551,-0.0593,-0.0601,-0.0625,-0.0658,-0.0665,-0.066,-0.0674,-0.0734,-0.0734,-0.0734,-0.069,-0.0687,-0.0684,0,0,0,0,0,-0.0438,-0.043,-0.0443,-0.0448,-0.0483,-0.0505,-0.0512,-0.0537,-0.0549,-0.0551,-0.0583,-0.0599,-0.0663,-0.066,-0.0669,-0.0665,-0.0734,-0.0734,-0.0734,-0.0691,-0.0687,-0.0684,0,0,0,0,0,0,-0.041,-0.0434,-0.0449,-0.045,-0.0474,-0.0511,-0.0512,-0.0535,-0.0563,-0.0562,-0.0604,-0.0613,-0.0636,-0.0658,-0.0655,-0.0684,-0.0699,-0.0701,-0.0664,-0.0661,-0.0658,-0.0634,-0.0676,0,0,0,0,0,-0.0403,-0.0401,-0.0434,-0.0435,-0.0443,-0.0479,-0.0491,-0.0509,-0.0538,-0.055,-0.0581,-0.0613,-0.0643,-0.0657,-0.0685,-0.0704,-0.0722,-0.0706,-0.0703,-0.07,-0.0687,-0.0723,-0.0721,-0.0733,-0.0733,-0.0733,0,0,-0.0392,-0.0405,-0.0405,-0.0429,-0.0447,-0.0451,-0.0486,-0.0497,-0.0501,-0.0554,-0.0567,-0.0605,-0.0647,-0.0666,-0.0678,-0.0684,-0.0706,-0.07,-0.0698,-0.0685,-0.0722,-0.0721,-0.072,-0.0733,-0.0733,-0.0733,0,0,-0.0364,-0.038,-0.0367,-0.0382,-0.0404,-0.0426,-0.0428,-0.0462,-0.0478,-0.0501,-0.0539,-0.0575,-0.0616,-0.0646,-0.0668,-0.0667,-0.0691,-0.0674,-0.0638,-0.0673,-0.0673,-0.0672,-0.0686,-0.0687,-0.067,-0.067,-0.067,0,-0.035,-0.034,-0.0369,-0.0361,-0.0366,-0.0411,-0.04,-0.0424,-0.0465,-0.0474,-0.0495,-0.0563,-0.0605,-0.0633,-0.0635,-0.066,-0.0674,-0.0648,-0.0669,-0.0669,-0.0669,-0.0684,-0.0686,-0.0668,-0.0668,-0.0668,-0.0669,0,-0.031,-0.0306,-0.0298,-0.0302,-0.0314,-0.031,-0.0345,-0.0355,-0.0383,-0.0412,-0.0446,-0.0509,-0.0546,-0.0572,-0.0606,-0.0626,-0.0634,-0.0662,-0.0674,-0.0665,-0.0681,-0.0684,-0.0665,-0.0666,-0.0666,-0.0667,0,0,-0.0265,-0.0268,-0.0264,-0.0253,-0.0279,-0.0279,-0.0286,-0.0304,-0.0296,-0.0353,-0.0354,-0.0431,-0.0467,-0.0493,-0.0546,-0.0583,-0.0608,-0.0617,-0.062,-0.0623,-0.0667,-0.0628,-0.0627,-0.064,-0.064,-0.064,-0.0675,0,-0.0223,-0.0189,-0.0209,-0.0179,-0.0164,-0.0201,-0.0198,-0.0222,-0.0253,-0.0265,-0.0341,-0.0366,-0.0437,-0.0453,-0.0503,-0.0578,-0.0614,-0.0595,-0.0681,-0.0683,-0.0644,-0.0629,-0.0589,-0.0612,-0.0677,-0.0678,-0.0678,0,-0.0171,-0.0156,-0.0117,-0.0106,-0.0102,-0.0091,-0.0086,-0.0091,-0.0129,-0.0151,-0.02,-0.0261,-0.0325,-0.0387,-0.0505,-0.0488,-0.0568,-0.0632,-0.0636,-0.0614,-0.0648,-0.0635,-0.0615,-0.0774,-0.0683,-0.0682,-0.0682,0,-0.0108,-0.0089,-0.0051,-0.0047,-0.0045,-0.0028,-0.0027,-0.005,-0.0035,-0.0077,-0.0072,-0.0169,-0.0195,-0.0321,-0.0454,-0.0482,-0.0572,-0.0632,-0.0672,-0.067,-0.0658,-0.0654,-0.0794,-0.0713,-0.0713,-0.0712,-0.0712,0,-0.005,-0.0019,-0.0011,0.0013,0.0067,0.0042,0.0093,0.0079,0.0078,0.0121,-0.0004,0.0012,-0.018,-0.026,-0.0408,-0.0524,-0.0538,-0.065,-0.0673,-0.064,-0.0634,-0.079,-0.0894,-0.0714,-0.0713,-0.0713,-0.0713,0,0.0013,0.0017,0.0065,0.0086,0.0102,0.0142,0.0184,0.0223,0.0203,0.0258,0.0252,0.0162,0.0068,-0.0118,-0.0297,-0.0433,-0.065,-0.0614,-0.0545,-0.0559,-0.0751,-0.0853,-0.0996,-0.1061,-0.0671,-0.067,-0.067,0,0.0047,0.0081,0.013,0.017,0.0185,0.024,0.0289,0.0293,0.0342,0.0366,0.0408,0.0332,0.0317,0.0069,-0.0186,-0.0415,-0.0597,-0.0543,-0.06,-0.0739,-0.0872,-0.0947,-0.0998,-0.0573,-0.0572,-0.057,-0.057,0,0.0115,0.0134,0.0175,0.026,0.0322,0.0389,0.046,0.0523,0.0554,0.0616,0.0691,0.0684,0.0457,0.0259,-0.0061,-0.0247,-0.0642,-0.0525,-0.0702,-0.0822,-0.0882,-0.0961,-0.0567,-0.0559,-0.056,-0.0561,-0.0562,-0.0562,0.017,0.0215,0.0278,0.0361,0.0437,0.0541,0.0626,0.0715,0.0839,0.0963,0.0933,0.0989,0.0655,0.023,-0.0047,-0.0525,-0.0567,-0.0681,-0.0796,-0.0861,-0.0916,-0.0476,-0.0474,-0.0474,-0.0475,-0.0475,-0.0475,0,0.024,0.0294,0.0374,0.0483,0.0588,0.0605,0.0748,0.0856,0.1039,0.1159,0.125,0.1162,0.0743,0.0277,-0.0366,-0.0726,-0.0889,-0.0942,-0.1073,-0.1116,-0.075,-0.0737,-0.0751,-0.0751,-0.075,-0.075,-0.075,-0.075,0.0281,0.0376,0.042,0.0603,0.0684,0.0844,0.0939,0.1104,0.1231,0.1432,0.1511,0.1511,0.1174,-0.0014,-0.0854,-0.1069,-0.1333,-0.1378,-0.1532,-0.1321,-0.1307,-0.1293,-0.1307,-0.1439,-0.144,-0.1835,-0.1839,-0.1843]}],[{"header":{"parameterUnit":"m.s-1","parameterCategory":2,"la1":30.2991,"la2":30.254,"lo1":-89.0895,"lo2":-89.0444,"dy":0.0017,"dx":0.0017,"nx":28,"ny":28,"refTime":"2023-09-06T21:00:00:Z","depth":"2","parameterNumber":2,"parameterNumberName":"U-component_of_CURRENTS"},"data":[0,0,0,0,0,0,0,0,0,0,0,0,0,0,0,0,0,0,0,0,0,0,0,0,0,0,0,0,0,0,0,0,0,0,0,0,0,0,0,0,0,0,0,0,0,0,0,0,0,0,0,0,0,0,0,0,0,0,0.2241,0.2241,0,0.2269,0.2269,0.2269,0.2263,0.2263,0.2262,0.2262,0.2262,0.2262,0.2262,0,0,0,0,0,0,0,0,0,0,0,0,0,0.2165,0.2166,0.2241,0.2241,0.2242,0.2269,0.2269,0.2269,0.2263,0.2263,0.2262,0.2262,0.2262,0.2262,0.2262,0,0,0,0,0,0,0,0,0,0,0,0,0,0.2194,0.2167,0.224,0.2244,0.2245,0.2269,0.2269,0.227,0.2263,0.2263,0.2262,0.2262,0.2262,0.2262,0.2262,0.2274,0,0,0.2264,0.2264,0,0,0,0,0,0,0,0,0.2192,0.2196,0.2243,0.2244,0.2245,0.2264,0.2243,0.227,0.2263,0.2253,0.2262,0.2262,0.2262,0.2262,0.2265,0.2274,0.2274,0.2264,0.2264,0.2264,0.2264,0,0,0,0,0,0,0,0.219,0.2195,0.2249,0.2244,0.2245,0.2239,0.2242,0.2248,0.2257,0.2254,0.2254,0.2262,0.2262,0.2265,0.2265,0.2274,0.2264,0.2264,0.2264,0.2264,0.2313,0.2314,0,0,0,0,0,0,0.2194,0.2193,0.2248,0.225,0.222,0.2241,0.2245,0.2256,0.2258,0.2259,0.2262,0.2262,0.2265,0.2265,0.2265,0.2309,0.2264,0.2264,0.2265,0.2312,0.2313,0.2314,0,0,0,0,0,0,0.2192,0.2199,0.2247,0.2224,0.223,0.2243,0.2256,0.2257,0.2271,0.2265,0.2264,0.2276,0.2264,0.2265,0.2283,0.2307,0.2265,0.2265,0.231,0.2312,0.2314,0.2377,0,0,0,0,0,0,0.219,0.2198,0.2208,0.2225,0.2232,0.2267,0.2257,0.2258,0.2277,0.2276,0.2276,0.2275,0.2264,0.2283,0.2284,0.2307,0.2265,0.2309,0.2311,0.2313,0.2373,0.238,0.2386,0,0,0,0,0,0.2187,0.2204,0.2209,0.2215,0.2246,0.2268,0.2271,0.2276,0.2278,0.2286,0.2291,0.2276,0.2295,0.2284,0.2285,0.2309,0.2308,0.2311,0.2313,0.237,0.2379,0.2386,0,0,0,0,0,0,0.218,0.2206,0.2211,0.2236,0.2253,0.2268,0.2284,0.2287,0.2298,0.2299,0.2292,0.2291,0.2318,0.2305,0.2293,0.2328,0.2299,0.2301,0.2342,0.235,0.2356,0.2362,0.2266,0,0,0,0,0,0.2184,0.2201,0.2224,0.2245,0.226,0.2275,0.2286,0.2288,0.2301,0.2306,0.2311,0.2315,0.2328,0.2331,0.2337,0.2357,0.2361,0.2372,0.2378,0.2384,0.2389,0.2424,0.2435,0.2322,0.2322,0.2322,0,0,0.2185,0.2205,0.2212,0.2244,0.2263,0.2284,0.2281,0.2304,0.2318,0.2305,0.2333,0.2342,0.2339,0.2364,0.2374,0.2356,0.2419,0.2387,0.2392,0.2394,0.2428,0.2439,0.2449,0.2323,0.2323,0.2323,0,0,0.2193,0.222,0.2233,0.2252,0.2282,0.2297,0.2308,0.2332,0.2343,0.2368,0.2368,0.2392,0.2405,0.2413,0.2417,0.2461,0.2456,0.2464,0.2498,0.2533,0.2543,0.2551,0.2576,0.2586,0.2462,0.2462,0.2462,0,0.219,0.2219,0.224,0.2261,0.2282,0.2307,0.2327,0.2346,0.2369,0.2386,0.2382,0.243,0.2428,0.2467,0.2483,0.2477,0.2494,0.247,0.2542,0.2551,0.2559,0.2582,0.2593,0.2466,0.2465,0.2465,0.2465,0,0.2206,0.2232,0.225,0.2285,0.2306,0.2334,0.2363,0.2389,0.2412,0.2428,0.2477,0.2488,0.2515,0.2522,0.2516,0.2574,0.2568,0.2552,0.2525,0.2574,0.2595,0.2605,0.247,0.2469,0.2468,0.2467,0,0,0.2184,0.2247,0.2251,0.2269,0.2323,0.2337,0.2383,0.2426,0.2462,0.249,0.2535,0.2569,0.2586,0.2592,0.2599,0.2628,0.2698,0.2618,0.2618,0.2646,0.2779,0.2762,0.277,0.2702,0.2704,0.2705,0.2774,0,0.2191,0.2229,0.2262,0.2299,0.2323,0.2367,0.241,0.2447,0.2492,0.2541,0.2569,0.2616,0.261,0.2636,0.2668,0.2693,0.2727,0.2681,0.2724,0.2725,0.2706,0.2782,0.2577,0.2621,0.2784,0.2786,0.2787,0,0.2185,0.2217,0.2254,0.2311,0.2329,0.2359,0.2434,0.2472,0.2549,0.2587,0.2644,0.267,0.2729,0.271,0.2789,0.2765,0.2781,0.2794,0.2796,0.2764,0.2726,0.2597,0.2633,0.2803,0.2802,0.28,0.2799,0,0.2143,0.2202,0.2234,0.2253,0.2328,0.2359,0.2406,0.2486,0.2525,0.2623,0.2665,0.2738,0.278,0.282,0.2857,0.2832,0.2936,0.2897,0.2895,0.2893,0.2718,0.2698,0.2952,0.2952,0.2952,0.2952,0.2951,0,0.2129,0.215,0.2219,0.2235,0.2279,0.2337,0.24,0.2464,0.2552,0.2604,0.2687,0.2747,0.2813,0.2874,0.289,0.2939,0.2967,0.2923,0.2921,0.2735,0.2716,0.2864,0.2853,0.2954,0.2954,0.2953,0.2953,0,0.2069,0.2123,0.2154,0.2233,0.226,0.2286,0.2382,0.2422,0.2529,0.2602,0.2634,0.2764,0.2864,0.2921,0.2997,0.2984,0.3024,0.3028,0.2808,0.278,0.2945,0.2936,0.3031,0.3031,0.3031,0.3032,0.3032,0,0.2046,0.2057,0.2128,0.2147,0.2187,0.2243,0.2283,0.2395,0.2439,0.2608,0.2629,0.2771,0.2848,0.2973,0.3001,0.3045,0.306,0.2857,0.277,0.2971,0.2958,0.2949,0.2941,0.2558,0.2554,0.2551,0.2549,0,0.1993,0.2018,0.2045,0.2085,0.2124,0.216,0.2229,0.2256,0.2389,0.2472,0.2592,0.2676,0.2831,0.281,0.289,0.2879,0.2835,0.2797,0.307,0.258,0.2533,0.2519,0.2524,0.2521,0.2524,0.2526,0.2528,0.2529,0.1948,0.1946,0.1982,0.2007,0.2046,0.2064,0.207,0.2146,0.2214,0.231,0.2462,0.2534,0.2613,0.2652,0.2602,0.2578,0.2762,0.2622,0.2627,0.2637,0.2581,0.2538,0.2515,0.2518,0.252,0.2522,0.2524,0,0.1876,0.1885,0.1902,0.1925,0.1918,0.1979,0.2015,0.2003,0.2044,0.218,0.2273,0.2174,0.2203,0.2271,0.2214,0.2242,0.2176,0.2135,0.2015,0.2048,0.2076,0.1984,0.1764,0.1761,0.1758,0.1755,0,0,0.1844,0.1823,0.1826,0.1788,0.1806,0.1777,0.1779,0.1786,0.1854,0.1882,0.1926,0.2122,0.2238,0.1966,0.1957,0.1845,0.1918,0.178,0.2405,0.23,0.2322,0.2392,0.2295,0,0,0,0,0]},{"header":{"parameterUnit":"m.s-1","parameterCategory":2,"la1":30.2991,"la2":30.254,"lo1":-89.0895,"lo2":-89.0444,"dy":0.0017,"dx":0.0017,"nx":28,"ny":28,"refTime":"2023-09-06T21:00:00:Z","depth":"2","parameterNumber":3,"parameterNumberName":"V-component_of_CURRENTS"},"data":[0,0,0,0,0,0,0,0,0,0,0,0,0,0,0,0,0,0,0,0,0,0,0,0,0,0,0,0,0,0,0,0,0,0,0,0,0,0,0,0,0,0,0,0,0,0,0,0,0,0,0,0,0,0,0,0,0,0,-0.0002,-0.0003,0,-0.0058,-0.0059,-0.006,-0.0104,-0.0105,-0.0105,-0.0105,-0.0181,-0.0183,-0.0184,0,0,0,0,0,0,0,0,0,0,0,0,0,0.0024,0.0024,-0.0002,-0.0003,-0.0003,-0.0058,-0.0059,-0.006,-0.0104,-0.0105,-0.0105,-0.0105,-0.018,-0.0182,-0.0184,0,0,0,0,0,0,0,0,0,0,0,0,0,-0.0007,0.0024,-0.0002,-0.003,-0.0033,-0.0058,-0.0059,-0.006,-0.0104,-0.0105,-0.0105,-0.0105,-0.018,-0.0182,-0.0185,-0.0194,0,0,-0.0193,-0.0194,0,0,0,0,0,0,0,0,-0.0005,-0.0008,-0.0026,-0.0028,-0.0032,-0.0073,-0.0077,-0.0105,-0.0104,-0.008,-0.0105,-0.0106,-0.0145,-0.015,-0.0163,-0.0197,-0.02,-0.0193,-0.0195,-0.0196,-0.0197,0,0,0,0,0,0,0,-0.0003,-0.0006,-0.0026,-0.0026,-0.003,-0.0055,-0.0059,-0.0083,-0.0111,-0.0082,-0.0085,-0.0087,-0.0147,-0.016,-0.0165,-0.0201,-0.0193,-0.0195,-0.0197,-0.0198,-0.0249,-0.0249,0,0,0,0,0,0,0.0011,-0.0004,-0.0025,-0.0028,-0.0017,-0.0054,-0.006,-0.0061,-0.0111,-0.0118,-0.0087,-0.0089,-0.0155,-0.0162,-0.0168,-0.0182,-0.0196,-0.0198,-0.02,-0.0249,-0.0249,-0.0249,0,0,0,0,0,0,0.0012,0.001,-0.0022,-0.0016,-0.0021,-0.0054,-0.0055,-0.0062,-0.0078,-0.0114,-0.0122,-0.0097,-0.0156,-0.0164,-0.019,-0.0185,-0.02,-0.0202,-0.025,-0.0249,-0.0249,-0.0209,0,0,0,0,0,0,0.0013,0.001,0.0015,-0.0015,-0.0021,-0.0028,-0.0055,-0.0063,-0.0078,-0.0082,-0.0125,-0.0132,-0.0157,-0.0186,-0.0193,-0.0189,-0.0204,-0.025,-0.025,-0.0249,-0.0211,-0.0207,-0.0205,0,0,0,0,0,0.0014,0.0025,0.0015,0.0013,-0.0014,-0.0028,-0.0033,-0.006,-0.0078,-0.0078,-0.0113,-0.0131,-0.0188,-0.0188,-0.0196,-0.0193,-0.025,-0.025,-0.0249,-0.0212,-0.0208,-0.0205,0,0,0,0,0,0,0.0038,0.0021,0.0009,0.0014,-0.0002,-0.0034,-0.0038,-0.0058,-0.0086,-0.0092,-0.0132,-0.0141,-0.0161,-0.0182,-0.0181,-0.0205,-0.022,-0.0221,-0.0189,-0.0186,-0.0183,-0.0162,-0.0206,0,0,0,0,0,0.0046,0.0051,0.0027,0.0032,0.0023,-0.0009,-0.0019,-0.0034,-0.0062,-0.0075,-0.0107,-0.0139,-0.0164,-0.0179,-0.0203,-0.0218,-0.0238,-0.022,-0.0217,-0.0214,-0.0202,-0.0238,-0.0237,-0.0247,-0.0247,-0.0247,0,0,0.0059,0.0049,0.0052,0.0038,0.0019,0.0018,-0.0016,-0.0025,-0.0025,-0.0078,-0.0094,-0.013,-0.0166,-0.0183,-0.0193,-0.0201,-0.0221,-0.0214,-0.0211,-0.02,-0.0237,-0.0236,-0.0235,-0.0247,-0.0247,-0.0247,0,0,0.0089,0.0074,0.0087,0.0079,0.0061,0.004,0.0039,0.0007,-0.0008,-0.0027,-0.0064,-0.0097,-0.0137,-0.0161,-0.0179,-0.0173,-0.0203,-0.0181,-0.015,-0.0185,-0.0184,-0.0184,-0.0202,-0.0204,-0.018,-0.0179,-0.0179,0,0.0105,0.0116,0.0089,0.01,0.0098,0.0052,0.0066,0.0045,0.0011,0.0004,-0.0024,-0.0087,-0.0124,-0.0144,-0.0145,-0.0166,-0.0185,-0.0162,-0.018,-0.0181,-0.0181,-0.0201,-0.0203,-0.0178,-0.0178,-0.0178,-0.0178,0,0.0143,0.0152,0.0157,0.0155,0.015,0.0153,0.0126,0.0115,0.0082,0.0059,0.0029,-0.0032,-0.0067,-0.0089,-0.0119,-0.0136,-0.0148,-0.0173,-0.0188,-0.0177,-0.0199,-0.0202,-0.0175,-0.0175,-0.0176,-0.0176,0,0,0.0179,0.0184,0.0187,0.0201,0.0181,0.0185,0.0183,0.0171,0.0174,0.0122,0.0118,0.0052,0.0011,-0.0011,-0.006,-0.0097,-0.0125,-0.0132,-0.0135,-0.0147,-0.0191,-0.0205,-0.021,-0.0157,-0.0157,-0.0158,-0.0203,0,0.0215,0.0253,0.0241,0.0275,0.0289,0.026,0.0265,0.0251,0.0218,0.0203,0.0135,0.0108,0.0044,0.0021,-0.0026,-0.0097,-0.0132,-0.011,-0.0202,-0.0204,-0.0216,-0.0214,-0.0185,-0.0224,-0.0206,-0.0207,-0.0207,0,0.0257,0.0277,0.0319,0.0342,0.0345,0.0357,0.0359,0.0361,0.0327,0.0302,0.0256,0.0199,0.014,0.0079,-0.0035,-0.0018,-0.0095,-0.0157,-0.0161,-0.0188,-0.0224,-0.0234,-0.0231,-0.0213,-0.0212,-0.0212,-0.0211,0,0.0301,0.0333,0.037,0.0379,0.0393,0.0409,0.0411,0.0393,0.0408,0.0367,0.0363,0.0276,0.0238,0.0127,-0.0008,-0.0022,-0.0132,-0.0169,-0.0251,-0.0252,-0.0252,-0.0252,-0.0245,-0.0245,-0.0245,-0.0245,-0.0245,0,0.0347,0.0379,0.0397,0.0422,0.0472,0.0462,0.0503,0.0492,0.0489,0.0519,0.0418,0.0415,0.0246,0.0159,0.0027,-0.0115,-0.0107,-0.0238,-0.0266,-0.0237,-0.0235,-0.0246,-0.0245,-0.0246,-0.0246,-0.0246,-0.0245,0,0.0395,0.0403,0.0453,0.0481,0.0497,0.0535,0.0576,0.0604,0.0586,0.0622,0.0616,0.0527,0.041,0.0241,0.0067,-0.0058,-0.02,-0.0253,-0.0199,-0.022,-0.0305,-0.0302,-0.0347,-0.0348,-0.0348,-0.0349,-0.035,0,0.0421,0.0453,0.0505,0.0541,0.0557,0.0609,0.0647,0.0655,0.0694,0.0698,0.0725,0.0626,0.0572,0.0308,0.0068,-0.0156,-0.0193,-0.0278,-0.0309,-0.0293,-0.0316,-0.0312,-0.0307,-0.029,-0.029,-0.029,-0.029,0,0.0474,0.0491,0.0532,0.0606,0.0657,0.0723,0.078,0.0828,0.085,0.0879,0.0905,0.0866,0.0615,0.0389,0.0071,-0.0085,-0.0244,-0.0286,-0.0284,-0.0269,-0.0244,-0.0265,-0.0262,-0.029,-0.029,-0.029,-0.029,-0.029,0.0509,0.0549,0.0602,0.0675,0.0741,0.0827,0.0888,0.0953,0.1032,0.1084,0.1047,0.0999,0.0737,0.0334,0.0053,-0.0246,-0.0239,-0.0339,-0.0337,-0.0336,-0.0321,-0.0299,-0.0352,-0.0353,-0.0353,-0.0353,-0.0353,0,0.0547,0.0596,0.0666,0.0752,0.0832,0.0861,0.0972,0.1033,0.1134,0.1182,0.1201,0.0969,0.0707,0.04,-0.0039,-0.0301,-0.0325,-0.0384,-0.0351,-0.0348,-0.0347,-0.0332,-0.0367,-0.0368,-0.0368,-0.0369,0,0,0.0569,0.0641,0.068,0.0814,0.0879,0.0991,0.106,0.115,0.1211,0.1258,0.1242,0.1181,0.0814,0.0502,0.014,-0.0114,-0.0173,-0.0167,-0.0127,-0.0042,-0.0038,-0.0291,-0.0262,0,0,0,0,0]}],[{"header":{"parameterUnit":"m.s-1","parameterCategory":2,"la1":30.2991,"la2":30.254,"lo1":-89.0895,"lo2":-89.0444,"dy":0.0017,"dx":0.0017,"nx":28,"ny":28,"refTime":"2023-09-06T21:00:00:Z","depth":"4","parameterNumber":2,"parameterNumberName":"U-component_of_CURRENTS"},"data":[0,0,0,0,0,0,0,0,0,0,0,0,0,0,0,0,0,0,0,0,0,0,0,0,0,0,0,0,0,0,0,0,0,0,0,0,0,0,0,0,0,0,0,0,0,0,0,0,0,0,0,0,0,0,0,0,0,0,0.1346,0.1347,0,0.1419,0.142,0.142,0.1474,0.1474,0.1475,0.1476,0.1555,0.1557,0.1558,0,0,0,0,0,0,0,0,0,0,0,0,0,0.1241,0.1242,0.1346,0.1347,0.1348,0.1419,0.142,0.1421,0.1474,0.1474,0.1475,0.1476,0.1555,0.1556,0.1558,0,0,0,0,0,0,0,0,0,0,0,0,0,0.1295,0.1243,0.1346,0.1385,0.1389,0.1419,0.142,0.1421,0.1473,0.1474,0.1475,0.1476,0.1554,0.1556,0.1559,0.1553,0,0,0.1565,0.1566,0,0,0,0,0,0,0,0,0.1292,0.1299,0.1378,0.1382,0.1387,0.144,0.1412,0.1466,0.1473,0.1439,0.1476,0.1477,0.1518,0.1523,0.1532,0.1556,0.156,0.1566,0.1567,0.1568,0.1569,0,0,0,0,0,0,0,0.1288,0.1296,0.1373,0.1379,0.1385,0.1395,0.1404,0.1422,0.1471,0.1442,0.1447,0.1458,0.1521,0.1529,0.1534,0.1561,0.1566,0.1568,0.1569,0.157,0.1683,0.1685,0,0,0,0,0,0,0.1284,0.1292,0.1371,0.1375,0.1344,0.1396,0.1406,0.142,0.147,0.148,0.1457,0.146,0.1525,0.1531,0.1537,0.1621,0.1568,0.157,0.1571,0.1681,0.1683,0.1685,0,0,0,0,0,0,0.1281,0.129,0.1368,0.1337,0.1348,0.1397,0.1413,0.1421,0.1463,0.1482,0.1491,0.1494,0.1526,0.1534,0.1586,0.1621,0.1571,0.1573,0.168,0.1682,0.1684,0.1732,0,0,0,0,0,0,0.1278,0.1289,0.1311,0.1337,0.135,0.1406,0.1413,0.1422,0.1467,0.1473,0.1516,0.1522,0.1527,0.1582,0.1588,0.1623,0.1575,0.1677,0.1681,0.1684,0.1729,0.1736,0.1743,0,0,0,0,0,0.1274,0.1295,0.1312,0.1322,0.1375,0.1407,0.1415,0.1451,0.1468,0.1491,0.1525,0.1523,0.1606,0.1586,0.1592,0.1628,0.1676,0.168,0.1683,0.1726,0.1735,0.1742,0,0,0,0,0,0,0.1261,0.1304,0.1322,0.1357,0.1391,0.1418,0.1447,0.1468,0.1511,0.1528,0.1542,0.1551,0.1611,0.1613,0.159,0.1671,0.1642,0.1647,0.1672,0.168,0.1687,0.1685,0.1577,0,0,0,0,0,0.1268,0.1301,0.1335,0.1368,0.1386,0.1422,0.1446,0.1471,0.1506,0.1528,0.1557,0.1591,0.1625,0.1648,0.1674,0.1716,0.172,0.1745,0.1752,0.1757,0.1761,0.1796,0.1806,0.1697,0.1697,0.1697,0,0,0.127,0.1302,0.132,0.1369,0.1399,0.1429,0.1439,0.1486,0.152,0.1528,0.1592,0.1619,0.1642,0.1693,0.172,0.1703,0.1794,0.1762,0.1767,0.1768,0.1801,0.1812,0.1821,0.17,0.17,0.1699,0,0,0.1283,0.1323,0.135,0.1381,0.1435,0.1457,0.1477,0.1523,0.1557,0.1613,0.1632,0.168,0.173,0.1753,0.1769,0.1829,0.183,0.1846,0.188,0.1914,0.1923,0.1931,0.1957,0.1967,0.1848,0.1848,0.1848,0,0.1287,0.1328,0.1363,0.1396,0.1429,0.1472,0.1505,0.1541,0.1602,0.1635,0.1644,0.1735,0.1755,0.1813,0.1839,0.1845,0.1864,0.1844,0.1922,0.193,0.1937,0.1962,0.1972,0.1851,0.185,0.185,0.185,0,0.1311,0.1354,0.1374,0.1432,0.1468,0.1509,0.1557,0.1604,0.1652,0.1688,0.1769,0.18,0.1854,0.1871,0.1877,0.1944,0.1941,0.1927,0.1897,0.1951,0.1974,0.1984,0.1855,0.1854,0.1853,0.1852,0,0,0.1291,0.1375,0.1385,0.142,0.1496,0.1524,0.1589,0.1655,0.1708,0.1768,0.1833,0.1895,0.1924,0.1944,0.1961,0.1991,0.2061,0.1989,0.1989,0.2009,0.2143,0.2027,0.2026,0.2066,0.2068,0.2069,0.2141,0,0.1304,0.1366,0.141,0.1474,0.1509,0.157,0.1626,0.1694,0.176,0.1832,0.1879,0.195,0.1948,0.1989,0.202,0.2058,0.2089,0.2044,0.2093,0.2095,0.198,0.2034,0.2075,0.2148,0.215,0.2152,0.2153,0,0.1307,0.1354,0.1417,0.1504,0.1527,0.1574,0.1677,0.1736,0.1838,0.1892,0.1965,0.2007,0.2081,0.2062,0.2146,0.2123,0.2142,0.2155,0.2158,0.2037,0.1996,0.2083,0.217,0.2169,0.2167,0.2166,0.2165,0,0.1268,0.1357,0.1411,0.1441,0.1542,0.1591,0.1656,0.176,0.1819,0.1942,0.1997,0.2081,0.214,0.2176,0.2219,0.2197,0.2296,0.2261,0.217,0.2163,0.2223,0.2214,0.2311,0.2311,0.2311,0.2311,0.2311,0,0.1252,0.1296,0.1403,0.1429,0.1503,0.1585,0.1677,0.1752,0.1863,0.1933,0.2032,0.2087,0.2176,0.2237,0.2252,0.2247,0.2327,0.2185,0.2175,0.2243,0.2235,0.223,0.222,0.2314,0.2313,0.2313,0.2312,0,0.1192,0.1264,0.1329,0.1444,0.1485,0.1541,0.1674,0.1731,0.1856,0.1948,0.1991,0.212,0.2205,0.2271,0.2344,0.2282,0.2291,0.2268,0.2355,0.2347,0.2125,0.2117,0.216,0.2157,0.2154,0.2152,0.2149,0,0.1165,0.1195,0.1321,0.1362,0.1419,0.1517,0.1578,0.1712,0.1768,0.1946,0.197,0.2107,0.2179,0.219,0.2268,0.2293,0.2265,0.2249,0.2162,0.2125,0.2111,0.2107,0.2103,0.2145,0.2144,0.2143,0.2143,0,0.1107,0.1165,0.1217,0.1302,0.1373,0.1445,0.1542,0.1566,0.1719,0.1843,0.1909,0.1962,0.2058,0.2112,0.2161,0.2166,0.2244,0.2217,0.2222,0.214,0.2106,0.2095,0.2094,0.2132,0.2134,0.2135,0.2135,0,0.1064,0.1085,0.1162,0.1228,0.1308,0.1347,0.1413,0.148,0.1552,0.1734,0.1754,0.1907,0.2035,0.2049,0.2089,0.2097,0.2053,0.1966,0.1983,0.1995,0.1909,0.184,0.1782,0,0,0,0,0,0.1016,0.103,0.1081,0.1144,0.1217,0.127,0.1373,0.144,0.1578,0.1579,0.1661,0.1742,0.1815,0.1893,0.1869,0.2017,0.2061,0.1978,0.1969,0.2076,0.2088,0.2001,0,0,0,0,0,0,0.0979,0.1023,0.1046,0.1058,0.1087,0.1157,0.122,0.1317,0.1324,0.1471,0.1521,0.1637,0.1735,0.1817,0.1837,0.186,0.1817,0.2073,0.2069,0.2069,0.208,0.2089,0.2004,0,0,0,0,0]},{"header":{"parameterUnit":"m.s-1","parameterCategory":2,"la1":30.2991,"la2":30.254,"lo1":-89.0895,"lo2":-89.0444,"dy":0.0017,"dx":0.0017,"nx":28,"ny":28,"refTime":"2023-09-06T21:00:00:Z","depth":"4","parameterNumber":3,"parameterNumberName":"V-component_of_CURRENTS"},"data":[0,0,0,0,0,0,0,0,0,0,0,0,0,0,0,0,0,0,0,0,0,0,0,0,0,0,0,0,0,0,0,0,0,0,0,0,0,0,0,0,0,0,0,0,0,0,0,0,0,0,0,0,0,0,0,0,0,0,0.0168,0.0167,0,0.0128,0.0127,0.0127,0.0096,0.0095,0.0095,0.0095,0.0038,0.0037,0.0036,0,0,0,0,0,0,0,0,0,0,0,0,0,0.0183,0.0183,0.0168,0.0167,0.0167,0.0128,0.0127,0.0127,0.0096,0.0095,0.0095,0.0095,0.0039,0.0037,0.0036,0,0,0,0,0,0,0,0,0,0,0,0,0,0.0163,0.0183,0.0168,0.0147,0.0144,0.0128,0.0127,0.0126,0.0096,0.0095,0.0095,0.0095,0.0039,0.0037,0.0035,0.0032,0,0,0.003,0.0029,0,0,0,0,0,0,0,0,0.0164,0.0162,0.015,0.0148,0.0146,0.0116,0.0112,0.0094,0.0096,0.0114,0.0095,0.0094,0.0063,0.0059,0.0053,0.003,0.0027,0.003,0.0028,0.0028,0.0027,0,0,0,0,0,0,0,0.0166,0.0164,0.0152,0.015,0.0147,0.0128,0.0125,0.0108,0.0091,0.0112,0.011,0.0106,0.0062,0.0055,0.0051,0.0026,0.003,0.0028,0.0027,0.0026,-0.0014,-0.0014,0,0,0,0,0,0,0.0173,0.0165,0.0153,0.015,0.0154,0.0128,0.0124,0.0126,0.0091,0.0086,0.0107,0.0105,0.0058,0.0053,0.0049,0.0044,0.0028,0.0026,0.0025,-0.0015,-0.0014,-0.0014,0,0,0,0,0,0,0.0174,0.0173,0.0154,0.0157,0.0153,0.0128,0.013,0.0125,0.0118,0.0087,0.0081,0.0104,0.0058,0.0052,0.0037,0.0041,0.0025,0.0023,-0.0015,-0.0014,-0.0014,0.0033,0,0,0,0,0,0,0.0175,0.0173,0.018,0.0157,0.0153,0.0151,0.013,0.0125,0.0117,0.0114,0.0083,0.0078,0.0057,0.004,0.0035,0.0039,0.0022,-0.0015,-0.0015,-0.0014,0.0031,0.0035,0.0038,0,0,0,0,0,0.0175,0.0188,0.018,0.0179,0.0162,0.0151,0.0148,0.0128,0.0117,0.0119,0.0096,0.0079,0.0037,0.0039,0.0033,0.0036,-0.0015,-0.0015,-0.0014,0.003,0.0034,0.0038,0,0,0,0,0,0,0.0199,0.0185,0.0177,0.0184,0.0171,0.0146,0.0147,0.0132,0.0116,0.0113,0.0082,0.0075,0.0063,0.0043,0.0046,0.0023,0.0007,0.0006,0.0043,0.0046,0.0049,0.0064,0.002,0,0,0,0,0,0.0208,0.0213,0.0193,0.02,0.0196,0.0172,0.0166,0.0152,0.0133,0.0126,0.0104,0.0079,0.0059,0.0048,0.0028,0.0019,-0.0005,0.0015,0.0018,0.0021,0.0029,-0.0005,-0.0004,-0.0014,-0.0014,-0.0014,0,0,0.022,0.0212,0.0215,0.0205,0.0194,0.0193,0.0167,0.0162,0.0161,0.0122,0.0117,0.0091,0.0059,0.0047,0.004,0.0031,0.0011,0.0021,0.0024,0.003,-0.0005,-0.0004,-0.0003,-0.0014,-0.0014,-0.0014,0,0,0.0243,0.0239,0.0248,0.0241,0.0227,0.0213,0.0213,0.0191,0.0181,0.017,0.0142,0.012,0.0091,0.0069,0.0053,0.0061,0.0029,0.0053,0.0081,0.0048,0.0049,0.0049,0.002,0.0017,0.0054,0.0054,0.0054,0,0.0256,0.0266,0.0249,0.0255,0.0255,0.0224,0.0234,0.022,0.0196,0.0191,0.0175,0.013,0.0101,0.0084,0.0085,0.0069,0.0047,0.0071,0.0053,0.0053,0.0052,0.0022,0.0018,0.0056,0.0056,0.0056,0.0056,0,0.028,0.0291,0.0297,0.0295,0.0293,0.0297,0.0277,0.0273,0.0254,0.0235,0.0216,0.0175,0.0148,0.0132,0.0111,0.0096,0.008,0.0062,0.0047,0.0056,0.0023,0.0019,0.006,0.0059,0.0058,0.0058,0,0,0.0301,0.0312,0.0314,0.0326,0.0316,0.0318,0.0321,0.0312,0.0314,0.0281,0.0278,0.0235,0.0208,0.0189,0.0156,0.0127,0.01,0.0099,0.0096,0.0076,0.0031,0.0014,0.0007,0.008,0.008,0.0079,0.0009,0,0.0323,0.035,0.0347,0.0374,0.0386,0.0371,0.0379,0.0367,0.0346,0.0335,0.0288,0.0269,0.0231,0.0218,0.0183,0.0122,0.009,0.0121,0.002,0.0017,0.0005,0.0002,0.0078,0.0006,0.0005,0.0004,0.0003,0,0.0344,0.0361,0.0394,0.0419,0.0424,0.0436,0.0444,0.0447,0.0422,0.0406,0.0374,0.0333,0.0287,0.0252,0.0155,0.0177,0.0112,0.0061,0.0056,0.0022,-0.0009,-0.0008,-0.0005,-0.0005,-0.0004,-0.0003,-0.0003,0,0.0363,0.0394,0.0425,0.0433,0.0454,0.047,0.048,0.047,0.0482,0.0451,0.0446,0.0381,0.0351,0.0264,0.0155,0.0155,0.0044,0.0026,-0.0051,-0.0053,-0.0037,-0.0037,-0.0042,-0.0042,-0.0042,-0.0042,-0.0042,0,0.0385,0.041,0.0441,0.0459,0.0503,0.0505,0.0543,0.0539,0.054,0.0555,0.0488,0.0475,0.0352,0.0272,0.0171,0.0047,0.0052,-0.0045,-0.0072,-0.0016,-0.0013,-0.0041,-0.0039,-0.0044,-0.0044,-0.0043,-0.0043,0,0.0398,0.0417,0.046,0.0497,0.0516,0.0548,0.0596,0.0618,0.0611,0.0628,0.0622,0.0545,0.0435,0.0304,0.0156,0.007,-0.005,-0.0096,-0.0022,-0.0045,-0.0129,-0.0124,-0.0186,-0.0187,-0.0188,-0.0189,-0.019,0,0.0405,0.043,0.0492,0.0524,0.0546,0.0597,0.0633,0.0653,0.0676,0.067,0.0676,0.0582,0.0511,0.0298,0.0151,-0.0049,-0.0079,-0.0141,-0.0138,-0.0123,-0.0144,-0.0138,-0.0132,-0.0191,-0.0192,-0.0192,-0.0192,0,0.042,0.0446,0.0483,0.0552,0.0602,0.066,0.0711,0.0733,0.0754,0.0753,0.0719,0.0605,0.0477,0.0302,0.0142,-0.0001,-0.0101,-0.0152,-0.0151,-0.0149,-0.013,-0.0148,-0.0142,-0.0196,-0.0195,-0.0195,-0.0195,0,0.0432,0.046,0.0513,0.0571,0.064,0.0698,0.0727,0.0754,0.0781,0.0772,0.0761,0.0624,0.055,0.0326,0.0182,0.0034,-0.0006,-0.005,-0.0055,-0.0053,0.0,0.0044,0.0011,0,0,0,0,0,0.0435,0.0467,0.0525,0.059,0.066,0.0701,0.0766,0.0787,0.0809,0.0795,0.0782,0.0664,0.0447,0.0352,0.0201,0.0144,-0.0045,-0.0039,-0.0101,-0.0215,-0.0211,-0.0173,0,0,0,0,0,0,0.0437,0.049,0.052,0.0598,0.0642,0.0721,0.0765,0.0783,0.0773,0.0775,0.0663,0.0621,0.0407,0.0533,0.0196,0.0151,0.009,-0.0137,-0.0141,-0.0217,-0.0214,-0.021,-0.017,0,0,0,0,0]}]]